Weather in Gorbatka

Russia / Primorsky Krai     43°57′05″N   132°23′04″E
temp.,
°C
wind,
m/s
gust,
m/s
humid.,
%
clouds,
%
prec.,
mm/h
press.,
hPa
HPBL,
m
7 march, sun
sun701:00−15se12820 0.0 103520
04:00−15s12840 0.0 103320
07:00−15sse12810 0.0 103320
10:00−9sw13690 0.0 1031249
13:00−4sw46650 0.0 1028767
16:00−2sw47660 0.0 1025783
19:00−6s35830 0.0 102474
22:00−8ssw22880 0.0 102621
8 march, mon
mon801:00−9wsw33900 0.0 102743
04:00−10ssw11860 0.0 102921
07:00−11s11850 0.0 102921
10:00−6sw00780 0.0 1030151
13:00−3ne11760 0.0 1029357
16:00−1se12680 0.0 1027241
19:00−3ssw11700 0.0 102621
22:00−5sse33760 0.0 102737
9 march, tue
tue901:00−5s38760 0.0 1025142
04:00−4s498717 0.0 1024209
07:00−3s411900 0.0 1022239
10:00+1s613851 0.0 1020496
13:00+4ssw712712 0.0 1016665
16:00+5ssw611582 0.0 1015696
19:00+1wnw81559100 0.3 10171109
22:00−2wnw5136257 0.3 10221250
10 march, wed
wed1001:00−4nw412701 0.0 10241161
04:00−5wnw412711 0.0 1026652
07:00−6wnw29700 0.0 1029322
10:00−4nw48540 0.0 1030775
13:00−1nnw34420 0.0 1029908
16:000wnw123532 0.0 1028893
19:00−1se224474 0.0 102746
22:00−1sse3104787 0.1 1027490
11 march, thu
thu1101:00−1ssw41257100 0.4 1027506
04:00−1s31167100 0.4 1025406
07:00−2ssw247991 0.0 102693
10:000wsw237475 0.0 1026255
13:00+3nnw35590 0.0 1027702
16:00+3n46580 0.0 1027785
19:000nne23700 0.0 102881
22:00−1nne25730 0.0 1030141